Find Orbcomm CDS-1

NORAD ID: 22489 Int'l Des: 1993-009 Owner: ORBC Country: US Constellation: orbcomm operational
LEOCIRCULAR

Live Position

Loading 3D Globe...

About Orbcomm CDS-1

Description loading...

Upcoming Passes

Passes for default location (London). Set your location on the main map for personalized predictions.

Altitude History

Loading altitude history...

Two-Line Element Set

1 22489U 93009A 26106.71057117 .00000423 00000-0 63140-4 0 9997
2 22489 24.9637 214.2975 0039289 241.8861 117.7672 14.47068542752274
Epoch: Apr 16, 2026 • Age: 17 hours

Current Status

Altitude 741.3 km
Velocity 7.48 km/s
Sub-Earth Point 15.48°N, 5.82°W
Launch Date Feb 9, 1993
Age 33.1 years
Type other

Technical Details

Classification Payload
Mass 15.00 kg
Dry Mass 15.00 kg
Total Mass 15.00 kg
Length 0.20 m
Diameter 0.50 m
Span 0.50 m
Shape Cyl
Manufacturer FAIR
Bus Type Picostar
Phase Status In Orbit
Owner/State ORBC/US

Most Searched